Dumas, TX

7:50 AM CDT on May 25, 2017 (GMT -0500)
Moore County

Weather History for KDUX - May, 2013

Change the Weather History Date:

Thursday, May 9, 2013

  Actual Average (KDHT) Record (KDHT)
Temperature  
Mean Temperature 58 °F -  
Max Temperature 74 °F 76 °F 96 °F (1963)
Min Temperature 42 °F 45 °F 32 °F (1965)
Degree Days  
Heating Degree Days 8    
Growing Degree Days 8 (Base 50)    
Moisture  
Dew Point 42 °F    
Average Humidity 63    
Maximum Humidity 92    
Minimum Humidity 27    
Precipitation  
Precipitation 0.27 in - - ()
Sea Level Pressure  
Sea Level Pressure 30.03 in    
Wind  
Wind Speed 12 mph (North)    
Max Wind Speed 34 mph    
Max Gust Speed 40 mph    
Visibility 10 miles    
Events Rain    
Averages and records for this station are not official NWS values.
T = Trace of Precipitation, MM = Missing Value Source: NWS Daily Summary

Daily Weather History Graph

Daily Weather History Graph

Search for Another Location

Airport or City:

Trip Planner

Search our weather history database for the weather conditions in past years. The results will help you decide how hot, cold, wet, or windy it might be!

Date:

Astronomy

May. 09, 2013 Rise Set
Actual Time 6:47 AM CDT 8:42 PM CDT
Civil Twilight 6:19 AM CDT 9:10 PM CDT
Nautical Twilight 5:45 AM CDT 9:44 PM CDT
Astronomical Twilight 5:09 AM CDT 10:20 PM CDT
Moon 6:32 AM CDT (5/9) 8:39 PM CDT (5/9)
Length of Visible Light 14h 50m
Length of Day
13h 54m
Waning Crescent, 0% of the Moon is Illuminated
May 9
Waning Crescent
May 9
New
May 17
First Quarter
May 24
Full
May 31
Last Quarter

Hourly Weather History & Observations

Time (CDT) Temp. Windchill Dew Point Humidity Pressure Visibility Wind Dir Wind Speed Gust Speed Precip Events Conditions
12:55 AM 46.4 °F 41.5 °F 39.2 °F 76% 29.98 in 10.0 mi North 10.4 mph - N/A   Clear
1:15 AM 45.7 °F 41.0 °F 38.5 °F 76% 29.99 in 10.0 mi NNW 9.2 mph - N/A   Clear
1:35 AM 45.1 °F 40.3 °F 38.5 °F 77% 29.99 in 10.0 mi North 9.2 mph - N/A   Clear
1:55 AM 44.6 °F 37.4 °F 38.3 °F 79% 29.97 in 10.0 mi North 16.1 mph - N/A   Clear
2:15 AM 46.0 °F 39.6 °F 40.5 °F 81% 29.96 in 10.0 mi North 15.0 mph - N/A   Clear
2:55 AM 45.5 °F 39.6 °F 39.6 °F 80% 29.96 in 10.0 mi NNW 12.7 mph - N/A   Clear
3:35 AM 43.7 °F 38.1 °F 39.2 °F 84% 29.96 in 10.0 mi NNW 10.4 mph - N/A   Clear
3:55 AM 43.9 °F 38.8 °F 39.6 °F 85% 29.97 in 10.0 mi NNW 9.2 mph - N/A   Clear
4:35 AM 43.7 °F 38.6 °F 39.6 °F 85% 29.98 in 10.0 mi NNW 9.2 mph - N/A   Clear
4:55 AM 42.3 °F 36.8 °F 38.1 °F 85% 29.98 in 10.0 mi NW 9.2 mph - N/A   Clear
5:15 AM 42.8 °F 37.5 °F 37.9 °F 83% 29.97 in 10.0 mi NNW 9.2 mph - N/A   Scattered Clouds
6:15 AM 43.0 °F 39.5 °F 38.5 °F 84% 30.01 in 10.0 mi NNW 5.8 mph - N/A   Scattered Clouds
6:35 AM 42.8 °F 38.0 °F 38.3 °F 84% 30.01 in 10.0 mi NNW 8.1 mph - N/A   Scattered Clouds
7:55 AM 46.8 °F - 40.1 °F 78% 30.02 in 10.0 mi NNW 17.3 mph 20.7 mph N/A   Clear
8:15 AM 47.7 °F - 40.5 °F 76% 30.03 in 10.0 mi North 17.3 mph 20.7 mph N/A   Scattered Clouds
8:35 AM 49.3 °F - 41.4 °F 74% 30.04 in 10.0 mi North 15.0 mph 20.7 mph N/A   Overcast
9:35 AM 56.1 °F - 44.1 °F 64% 30.05 in 10.0 mi NNE 9.2 mph - N/A   Mostly Cloudy
9:55 AM 57.9 °F - 45.3 °F 63% 30.06 in 10.0 mi NNE 10.4 mph - N/A   Mostly Cloudy
10:35 AM 59.9 °F - 45.9 °F 60% 30.06 in 10.0 mi NE 9.2 mph - N/A   Scattered Clouds
10:55 AM 61.5 °F - 46.0 °F 57% 30.06 in 10.0 mi North 12.7 mph 17.3 mph N/A   Scattered Clouds
11:15 AM 61.7 °F - 45.7 °F 56% 30.06 in 10.0 mi North 11.5 mph 18.4 mph N/A   Scattered Clouds
11:35 AM 64.4 °F - 45.9 °F 51% 30.06 in 10.0 mi North 11.5 mph - N/A   Clear
12:15 PM 65.3 °F - 45.5 °F 49% 30.05 in 10.0 mi North 12.7 mph 19.6 mph N/A   Clear
12:35 PM 66.6 °F - 43.7 °F 44% 30.04 in 10.0 mi North 11.5 mph 18.4 mph N/A   Clear
12:55 PM 67.3 °F - 43.0 °F 41% 30.04 in 10.0 mi North 11.5 mph 19.6 mph N/A   Clear
1:15 PM 68.9 °F - 43.2 °F 39% 30.03 in 10.0 mi NNE 11.5 mph 16.1 mph N/A   Clear
1:35 PM 69.8 °F - 42.4 °F 37% 30.03 in 10.0 mi North 10.4 mph 20.7 mph N/A   Clear
1:55 PM 69.4 °F - 41.2 °F 36% 30.02 in 10.0 mi NNW 10.4 mph - N/A   Clear
2:15 PM 70.3 °F - 40.5 °F 34% 30.02 in 10.0 mi NNE 11.5 mph 18.4 mph N/A   Clear
2:35 PM 72.3 °F - 38.5 °F 29% 30.02 in 10.0 mi North 9.2 mph - N/A   Clear
3:15 PM 73.2 °F - 37.6 °F 27% 30.00 in 10.0 mi NNE 11.5 mph - N/A   Clear
3:35 PM 73.2 °F - 37.2 °F 27% 30.00 in 10.0 mi North 5.8 mph - N/A   Clear
3:55 PM 73.2 °F - 37.8 °F 28% 29.99 in 10.0 mi NE 12.7 mph 18.4 mph N/A   Clear
4:15 PM 73.6 °F - 38.7 °F 28% 29.98 in 10.0 mi NE 12.7 mph 17.3 mph N/A   Clear
4:35 PM 71.4 °F - 37.4 °F 29% 29.98 in 10.0 mi NNE 10.4 mph - N/A   Clear
4:55 PM 73.2 °F - 37.4 °F 27% 29.98 in 10.0 mi North 13.8 mph 21.9 mph N/A   Clear
5:15 PM 72.5 °F - 36.7 °F 27% 29.98 in 10.0 mi NNE 6.9 mph 16.1 mph N/A   Clear
5:35 PM 73.8 °F - 38.8 °F 28% 29.97 in 10.0 mi East 11.5 mph 17.3 mph N/A   Scattered Clouds
5:55 PM 71.2 °F - 38.5 °F 30% 29.97 in 10.0 mi ENE 15.0 mph - N/A   Scattered Clouds
6:15 PM 70.3 °F - 39.2 °F 32% 29.97 in 10.0 mi ENE 12.7 mph - N/A   Scattered Clouds
6:35 PM 68.9 °F - 38.7 °F 33% 29.98 in 10.0 mi NE 9.2 mph - N/A   Scattered Clouds
6:55 PM 67.6 °F - 39.4 °F 36% 30.00 in 10.0 mi North 15.0 mph 24.2 mph N/A   Overcast
7:15 PM 59.4 °F - 47.1 °F 64% 30.03 in 3.0 mi North 15.0 mph 18.4 mph 0.09 in Rain Heavy Rain
7:35 PM 55.6 °F - 48.7 °F 78% 30.04 in 4.0 mi North 13.8 mph 34.5 mph 0.19 in Rain Heavy Rain
7:55 PM 52.0 °F - 48.0 °F 86% 30.07 in 5.0 mi NNW 34.5 mph 40.3 mph 0.22 in Rain Heavy Rain
8:15 PM 50.7 °F - 48.4 °F 92% 30.10 in 5.0 mi NW 29.9 mph 36.8 mph 0.01 in Rain Rain
8:35 PM 50.4 °F - 48.2 °F 92% 30.12 in 7.0 mi NNW 23.0 mph 28.8 mph 0.01 in Rain Rain
8:55 PM 50.0 °F - 47.3 °F 90% 30.11 in 7.0 mi NNW 21.9 mph - 0.05 in Rain Rain
9:15 PM 50.9 °F - 47.3 °F 87% 30.11 in 10.0 mi NNW 21.9 mph - N/A   Mostly Cloudy
9:35 PM 52.0 °F - 47.3 °F 84% 30.11 in 10.0 mi NNW 16.1 mph - N/A   Scattered Clouds
9:55 PM 52.2 °F - 46.8 °F 82% 30.11 in 10.0 mi WNW 8.1 mph - N/A Rain Light Rain
10:15 PM 52.2 °F - 47.1 °F 83% 30.11 in 10.0 mi NNE 5.8 mph - N/A   Scattered Clouds
10:35 PM 51.8 °F - 47.5 °F 85% 30.11 in 10.0 mi ENE 8.1 mph - N/A   Clear
10:55 PM 52.7 °F - 47.1 °F 81% 30.11 in 10.0 mi NE 5.8 mph - N/A   Scattered Clouds
11:15 PM 52.0 °F - 47.7 °F 85% 30.11 in 10.0 mi NNE 5.8 mph - N/A   Clear
11:35 PM 50.2 °F - 47.7 °F 91% 30.13 in 10.0 mi North 6.9 mph - N/A   Clear
11:55 PM 48.9 °F - 46.6 °F 92% 30.14 in 10.0 mi ENE 3.5 mph - N/A   Clear